Date,TemperatureHighF,TemperatureAvgF,TemperatureLowF,DewpointHighF,DewpointAvgF,DewpointLowF,HumidityHigh,HumidityAvg,HumidityLow,PressureMaxIn,PressureMinIn,WindSpeedMaxMPH,WindSpeedAvgMPH,GustSpeedMaxMPH,PrecipitationSumIn
2013-1-1,47.9,42.8,37.2,47.6,40.8,30.3,99,93,65,30.12,29.99,19,1,19,0.81
2013-1-2,37.2,34.6,32.9,36.4,32.1,30.2,97,90,83,30.23,30.05,13,1,13,0.00
2013-1-3,41.2,33.5,29.8,30.5,25.7,20.3,92,74,46,30.41,30.19,13,2,13,0.00
2013-1-4,42.5,33.0,26.7,24.5,20.9,18.7,76,62,41,30.48,30.39,11,2,11,0.00
2013-1-5,43.5,36.1,28.8,34.2,23.6,18.7,93,62,38,30.45,30.29,11,1,11,0.09
2013-1-6,45.1,38.5,32.8,36.5,33.2,26.7,97,82,59,30.35,30.18,15,2,15,0.01
2013-1-7,45.1,36.2,26.3,29.5,25.8,21.9,86,67,49,30.45,30.33,11,2,11,0.00
2013-1-8,50.8,42.3,35.3,44.9,32.6,26.5,91,69,59,30.41,30.31,12,2,12,0.00
2013-1-9,56.6,50.6,46.4,54.2,49.2,44.2,99,95,88,30.45,30.33,7,1,7,0.18
2013-1-10,57.2,52.2,48.9,55.6,51.3,48.6,100,97,88,30.44,30.14,20,2,20,0.05
2013-1-11,63.1,60.2,56.9,62.1,59.4,53.5,100,97,87,30.15,30.05,27,3,27,0.34
2013-1-12,64.3,62.3,61.0,64.2,61.5,57.1,100,97,86,30.11,29.98,12,1,12,0.02
2013-1-13,62.4,59.0,41.9,61.5,57.7,40.3,99,95,87,30.08,29.93,17,3,17,1.26
2013-1-14,43.9,39.7,36.0,43.1,38.6,34.4,98,96,92,30.30,30.08,22,4,22,29.95
2013-1-15,44.3,41.5,38.0,44.0,41.1,37.5,99,99,97,30.20,29.99,12,1,12,29.88
2013-1-16,48.8,44.3,39.5,48.8,44.0,39.0,100,99,96,30.07,29.92,14,2,14,0.00
2013-1-17,43.8,39.9,35.9,42.8,34.3,24.8,97,81,63,30.37,29.83,22,3,22,0.00
2013-1-18,47.0,38.4,31.0,31.6,26.0,13.1,88,64,28,30.57,30.36,11,1,11,0.00
2013-1-19,49.9,40.8,32.2,30.1,27.1,23.7,76,59,42,30.45,30.22,14,1,14,0.00
2013-1-20,55.3,44.4,39.1,35.5,29.6,24.6,65,56,35,30.24,30.15,11,2,11,0.57
2013-1-21,42.1,35.8,26.0,25.2,17.4,9.9,67,48,29,30.28,30.11,16,3,16,0.00
2013-1-22,33.5,25.7,18.8,12.2,5.0,-0.7,63,42,27,30.43,30.26,12,2,12,0.00
2013-1-23,48.2,35.0,26.1,33.4,17.0,6.4,72,48,36,30.42,30.19,15,1,15,0.00
2013-1-24,44.5,34.6,25.7,35.4,16.5,1.1,75,50,25,30.43,30.17,14,2,14,0.00
2013-1-25,35.0,29.6,26.7,34.5,20.0,1.4,98,71,33,30.40,30.16,18,2,18,0.00
2013-1-26,45.1,35.9,29.4,34.6,31.0,27.3,98,83,62,30.38,30.23,9,1,9,0.06
2013-1-27,45.8,37.8,28.8,34.2,30.2,26.0,94,75,62,30.47,30.37,16,2,16,0.00
2013-1-28,54.4,46.6,40.8,46.3,38.8,29.3,90,75,61,30.38,30.25,14,2,14,0.00
2013-1-29,61.8,53.6,47.0,57.9,51.8,44.3,100,94,85,30.25,29.85,14,2,14,0.00
2013-1-30,62.7,53.0,35.8,62.4,51.1,27.7,100,93,73,29.85,29.53,23,4,23,1.66
2013-1-31,42.3,35.7,30.6,28.0,23.4,19.5,77,61,46,30.13,29.80,19,4,19,0.01
2013-2-1,42.2,26.8,17.0,32.3,14.2,6.7,87,60,35,30.46,30.07,22,4,22,0.01
2013-2-2,36.3,27.4,20.2,30.9,20.9,10.9,91,77,52,30.44,30.15,11,1,11,0.04
2013-2-3,48.9,38.1,33.5,34.1,29.6,26.8,91,72,45,30.17,30.03,22,4,22,0.01
2013-2-4,43.6,41.7,40.2,28.1,27.1,25.7,61,56,51,30.06,30.00,11,1,11,0.00
2013-2-5,59.8,47.3,38.3,42.1,36.5,27.4,89,68,38,30.05,29.94,10,1,10,0.01
2013-2-6,58.9,49.2,40.3,39.5,31.9,24.2,74,52,36,30.21,30.05,11,2,11,0.00
2013-2-7,50.4,47.0,44.6,44.8,34.4,27.1,92,63,44,30.14,29.96,9,0,9,0.00
2013-2-8,49.4,42.8,33.2,45.9,38.0,27.1,97,83,63,30.29,29.91,19,2,19,0.08
2013-2-9,51.6,39.9,28.8,28.4,25.2,21.0,82,59,35,30.38,30.25,12,1,12,0.00
2013-2-10,51.9,47.4,43.5,49.9,34.6,22.3,99,65,33,30.25,29.99,28,6,28,0.39
2013-2-11,53.6,49.5,42.3,52.0,40.7,27.5,99,75,39,30.15,29.99,23,2,23,0.02
2013-2-12,48.8,43.3,37.8,36.2,29.9,25.5,82,60,45,30.19,29.86,15,1,15,0.06
2013-2-13,44.2,39.4,35.9,43.5,36.3,30.3,99,89,74,30.03,29.71,22,2,22,0.07
2013-2-14,54.7,42.4,32.1,36.5,31.3,26.9,84,66,40,30.11,30.01,13,2,13,0.01
2013-2-15,53.3,43.4,34.1,38.8,32.4,25.2,75,65,54,30.13,30.04,19,3,19,0.00
2013-2-16,34.3,29.2,24.1,25.2,16.8,6.4,77,61,38,30.22,30.06,18,4,18,0.00
2013-2-17,40.9,27.0,19.9,13.9,9.4,5.9,60,48,28,30.34,30.20,15,1,15,0.00
2013-2-18,50.1,48.2,46.7,26.1,25.3,23.1,44,41,38,30.06,30.00,38,12,38,0.00
2013-2-19,49.8,41.1,33.1,44.0,26.5,7.9,98,62,24,30.22,29.95,23,4,23,0.35
2013-2-20,36.8,31.1,24.8,16.4,13.3,5.0,64,48,29,30.30,30.19,11,1,11,0.00
2013-2-21,47.9,36.3,27.6,36.5,19.7,11.3,97,54,27,30.27,30.01,15,2,15,0.43
2013-2-22,45.2,43.1,37.3,43.0,41.7,36.5,98,95,87,30.11,30.00,18,2,18,0.12
2013-2-23,53.9,46.4,39.6,47.4,43.0,32.3,99,89,72,30.07,29.87,13,2,13,0.18
2013-2-24,55.1,42.7,30.4,32.7,27.2,19.6,82,57,36,30.09,29.95,14,1,14,0.00
2013-2-25,51.6,44.4,37.9,40.6,27.1,19.5,79,51,41,30.06,29.78,16,3,16,0.00
2013-2-26,46.7,41.8,36.2,43.9,39.9,32.8,100,93,74,29.78,29.51,23,4,23,0.75
2013-2-27,49.9,39.4,35.3,35.2,31.6,27.1,93,74,52,29.90,29.76,21,3,21,0.00
2013-2-28,36.3,33.6,31.0,28.5,25.1,22.4,84,71,63,30.07,29.85,15,4,19,0.01
2013-3-1,37.6,33.1,31.0,29.4,27.5,24.7,93,80,68,30.05,29.99,14,2,14,0.00
2013-3-2,33.8,30.5,26.9,28.6,25.1,20.0,90,80,72,30.13,29.99,16,4,16,0.00
2013-3-3,35.2,28.4,25.1,21.8,18.7,14.9,81,68,47,30.16,30.09,15,2,15,0.00
2013-3-4,48.0,37.8,27.3,27.1,19.7,13.8,67,49,32,30.23,30.02,13,2,13,0.00
2013-3-5,53.1,44.2,31.2,52.8,38.1,21.3,99,80,46,30.03,29.65,28,4,28,29.94
2013-3-6,35.2,30.4,27.9,26.6,23.3,17.9,86,75,63,30.31,29.90,27,7,27,15.11
2013-3-7,44.6,33.5,28.4,30.7,25.6,23.1,83,73,54,30.39,30.28,13,2,13,29.92
2013-3-8,52.2,39.0,27.5,28.9,24.4,18.5,85,59,30,30.42,30.31,13,1,13,29.96
2013-3-9,56.6,46.7,36.2,30.6,27.5,24.3,65,48,35,30.33,30.16,16,2,16,108.71
2013-3-10,66.8,57.1,50.7,38.8,30.7,27.4,49,37,26,30.16,29.97,28,7,28,0.00
2013-3-11,57.6,51.2,37.8,52.3,46.0,33.5,97,83,49,29.98,29.75,29,5,29,1.08
2013-3-12,52.6,41.1,33.8,33.5,29.6,26.2,85,65,41,30.15,29.92,17,3,17,0.00
2013-3-13,42.6,36.9,28.4,29.1,22.3,15.5,71,56,40,30.38,30.11,21,4,21,0.00
2013-3-14,47.4,34.1,22.5,32.6,18.7,10.9,88,56,23,30.45,30.30,14,2,14,0.01
2013-3-15,70.1,50.4,32.8,42.6,36.6,29.9,92,64,34,30.31,29.93,19,2,19,0.01
2013-3-16,73.7,63.6,54.8,47.9,43.4,38.7,60,48,34,29.93,29.80,21,3,21,0.00
2013-3-17,70.3,60.9,53.6,52.2,45.9,40.0,73,59,42,29.94,29.84,15,1,15,0.00
2013-3-18,56.5,54.0,50.4,54.8,51.8,46.4,99,93,69,29.89,29.73,21,3,21,1.24
2013-3-19,55.7,46.1,34.9,51.6,27.9,10.6,99,54,22,30.17,29.87,18,3,18,0.00
2013-3-20,52.5,42.0,32.7,30.3,17.5,6.7,80,40,21,30.17,29.95,20,3,20,0.00
2013-3-21,39.8,30.5,19.9,26.6,12.2,5.0,78,48,28,30.08,29.99,18,3,18,0.00
2013-3-22,40.8,34.7,28.7,27.0,18.2,11.8,60,51,42,30.10,30.03,10,1,10,0.00
2013-3-23,50.2,41.7,35.0,41.9,35.4,25.9,90,78,63,30.06,29.78,12,1,12,0.18
2013-3-24,52.9,45.8,36.8,51.9,43.0,27.3,100,91,62,29.84,29.41,26,3,26,0.80
2013-3-25,36.6,31.0,28.4,28.8,23.4,21.7,84,73,62,30.11,29.66,25,6,25,0.00
2013-3-26,35.6,30.9,28.2,27.8,24.3,22.4,88,76,63,30.36,30.10,14,4,14,0.01
2013-3-27,47.4,36.7,27.2,26.4,23.1,19.5,82,60,36,30.40,30.31,18,2,18,0.00
2013-3-28,55.7,43.6,32.1,30.8,25.3,20.3,65,49,35,30.39,30.28,21,2,21,0.00
2013-3-29,48.5,43.4,39.5,39.6,29.7,20.1,93,60,40,30.38,30.25,10,1,10,0.00
2013-3-30,58.3,47.1,39.5,51.5,42.7,37.9,98,86,57,30.25,30.01,11,1,11,0.28
2013-3-31,59.9,54.2,51.4,55.7,52.4,50.0,99,94,76,30.01,29.86,10,1,10,0.28
2013-4-1,62.4,52.6,45.4,50.0,41.3,34.0,96,67,40,30.09,29.90,16,3,16,0.00
2013-4-2,51.6,43.6,34.6,35.1,24.0,15.2,70,48,25,30.25,30.09,12,2,12,0.00
2013-4-3,53.3,46.2,38.3,26.7,20.4,14.7,54,37,26,30.26,30.17,16,2,16,0.00
2013-4-4,48.0,40.3,36.9,40.8,35.6,20.2,99,86,34,30.17,30.01,9,1,9,0.97
2013-4-5,62.6,49.8,38.8,45.3,37.0,26.7,99,68,28,30.12,30.01,16,2,16,0.00
2013-4-6,68.1,58.0,47.9,38.5,34.7,30.5,56,42,29,30.19,30.05,20,2,20,0.00
2013-4-7,72.7,61.0,50.4,46.6,41.3,35.8,67,49,28,30.15,30.03,20,2,20,0.00
2013-4-8,73.3,64.2,55.6,54.3,49.6,44.4,73,60,46,30.09,30.00,18,2,18,0.00
2013-4-9,77.2,67.5,56.7,57.1,52.4,48.8,79,59,45,30.17,30.02,19,2,20,0.00
2013-4-10,80.9,70.7,60.5,58.2,54.1,51.1,76,57,42,30.08,29.85,19,2,19,0.00
2013-4-11,74.9,65.8,58.9,63.1,56.9,52.6,99,74,56,29.86,29.52,27,3,27,1.06
2013-4-12,62.0,54.3,44.9,59.8,43.2,34.0,99,69,37,29.97,29.58,17,3,17,0.14
2013-4-13,69.1,56.3,43.9,41.8,36.4,30.3,77,51,25,30.09,29.96,13,2,13,0.00
2013-4-14,60.9,55.0,51.7,51.4,41.1,30.0,97,63,34,30.04,29.93,17,1,17,0.04
2013-4-15,72.3,60.9,51.7,57.8,54.2,50.6,99,81,55,30.09,29.92,15,2,15,0.00
2013-4-16,75.4,66.5,60.2,63.6,59.3,54.6,89,78,64,30.22,30.08,15,2,15,0.01
2013-4-17,80.9,67.1,60.2,65.6,60.6,55.8,96,81,56,30.18,30.02,18,2,18,0.61
2013-4-18,75.6,67.0,58.7,61.8,57.6,53.0,98,74,47,30.05,29.77,25,4,25,0.00
2013-4-19,69.3,53.9,40.1,63.1,47.2,28.2,97,79,58,30.14,29.62,23,4,23,29.98
2013-4-20,58.4,47.1,36.3,36.0,29.7,23.8,76,53,28,30.30,30.14,15,2,15,29.88
2013-4-21,63.5,53.0,44.5,38.3,31.8,25.0,54,45,29,30.39,30.25,13,1,13,29.99
2013-4-22,66.0,57.3,47.6,45.0,39.0,35.7,68,51,34,30.32,30.14,14,2,14,0.00
2013-4-23,68.8,59.4,49.2,47.3,41.7,31.5,67,53,39,30.21,30.03,17,1,17,0.00
2013-4-24,65.8,56.1,43.6,60.2,49.5,38.3,96,79,60,30.22,29.99,18,2,18,0.16
2013-4-25,63.2,49.9,37.5,38.1,32.0,22.3,85,55,22,30.37,30.22,12,2,12,0.00
2013-4-26,65.6,55.3,45.5,47.0,35.3,29.3,87,48,27,30.40,30.28,14,1,14,0.00
2013-4-27,51.6,49.8,47.7,51.3,48.9,45.8,99,97,88,30.36,30.12,13,1,13,0.49
2013-4-28,56.7,54.8,51.3,56.7,54.6,51.0,100,99,98,30.12,29.91,18,1,18,29.99
2013-4-29,67.8,59.2,54.5,61.3,54.5,50.9,100,86,59,30.03,29.93,1,0,1,29.96
2013-4-30,73.2,63.8,54.2,56.9,52.5,48.5,96,69,43,30.06,29.94,1,0,1,29.99
2013-5-1,71.6,65.0,57.8,58.7,55.6,51.1,94,73,55,30.16,30.06,13,1,13,1.20
2013-5-2,69.3,62.3,55.7,58.7,53.7,49.3,82,73,64,30.17,30.09,13,2,13,0.00
2013-5-3,67.8,60.0,56.5,57.3,53.2,49.9,95,79,55,30.11,29.93,23,4,23,0.16
2013-5-4,58.4,51.9,47.0,52.4,50.4,46.7,100,95,77,29.94,29.87,14,2,14,6.25
2013-5-5,57.6,48.5,43.3,53.5,46.9,42.8,99,95,71,29.92,29.77,1,0,1,0.00
2013-5-6,52.0,47.4,44.1,49.9,46.4,43.5,99,96,87,29.93,29.77,1,0,1,0.00
2013-5-7,68.8,56.3,45.4,53.0,47.7,43.8,98,75,46,29.99,29.90,1,0,1,0.00
2013-5-8,72.7,62.3,53.9,58.8,53.0,-99.9,91,73,48,30.05,29.92,1,0,1,15.84
2013-5-9,76.3,67.6,58.9,62.8,56.2,53.1,82,68,46,30.11,30.00,14,0,14,0.00
2013-5-10,68.6,64.8,60.4,58.5,56.0,53.6,84,73,61,30.05,29.93,12,1,12,0.00
2013-5-11,71.1,63.5,53.9,61.2,56.3,47.4,96,78,60,30.00,29.88,15,1,15,0.02
2013-5-12,60.4,53.7,46.0,48.5,35.6,26.0,87,53,28,30.17,29.98,12,2,12,0.00
2013-5-13,63.9,53.7,41.9,36.9,32.3,26.1,67,46,27,30.27,30.16,13,1,13,0.00
2013-5-14,77.0,63.2,49.1,54.6,43.6,30.5,66,49,37,30.23,30.04,15,1,15,0.00
2013-5-15,83.0,71.6,61.8,56.1,51.5,43.0,70,51,27,30.13,29.99,10,1,10,0.00
2013-5-16,79.8,70.5,64.3,63.1,55.7,47.6,73,60,33,30.05,29.95,11,1,11,0.00
2013-5-17,72.8,67.0,62.6,64.3,58.9,51.8,96,75,61,30.08,29.98,9,0,9,0.01
2013-5-18,70.6,65.7,62.0,69.0,64.9,60.9,100,98,91,30.05,29.98,14,1,14,0.12
2013-5-19,67.8,64.1,59.0,67.8,63.9,58.7,100,100,98,30.11,29.97,17,1,17,2.21
2013-5-20,76.8,66.6,58.1,68.0,62.9,57.8,100,89,69,30.11,29.98,3,0,3,0.00
2013-5-21,82.8,70.6,64.5,71.4,65.1,61.8,95,84,59,30.01,29.88,12,0,12,0.00
2013-5-22,78.8,70.5,64.3,68.1,64.7,60.8,95,83,61,29.93,29.82,14,1,14,0.00
2013-5-23,77.4,68.0,60.4,62.6,58.4,52.3,96,73,44,30.01,29.87,17,1,17,0.00
2013-5-24,69.6,60.9,55.9,53.5,47.5,38.5,87,63,35,30.26,30.00,12,2,12,0.00
2013-5-25,70.3,60.9,50.7,51.5,43.9,38.0,72,55,36,30.35,30.17,13,1,13,0.00
2013-5-26,72.1,64.7,57.0,55.1,48.7,41.1,65,56,47,30.28,30.16,14,1,14,0.00
2013-5-27,79.8,70.0,60.2,60.3,54.7,45.9,76,59,46,30.20,30.07,12,1,12,0.00
2013-5-28,79.8,72.1,63.4,63.9,59.1,55.6,85,65,46,30.15,30.06,14,1,14,0.00
2013-5-29,79.4,71.8,64.3,66.2,59.4,54.6,80,66,50,30.19,30.07,14,2,14,0.00
2013-5-30,77.6,71.6,64.7,66.1,62.5,59.8,88,73,63,30.19,30.07,15,2,15,0.00
2013-5-31,77.6,71.5,66.3,66.3,63.6,61.6,90,77,63,30.16,30.02,14,2,14,0.00
2013-6-1,79.6,72.2,67.8,71.2,66.1,61.0,98,81,68,30.05,29.92,15,2,15,0.61
2013-6-2,76.5,70.3,66.6,70.9,67.1,63.0,99,90,65,29.95,29.85,10,1,10,0.48
2013-6-3,77.6,69.3,62.9,65.0,61.2,56.5,96,77,51,29.98,29.88,12,1,12,0.00
2013-6-4,76.1,69.2,61.3,63.6,58.6,56.2,86,70,51,30.02,29.96,7,1,10,0.00
2013-6-5,74.9,68.1,64.0,69.4,63.7,57.8,100,87,68,30.01,29.89,14,1,14,0.63
2013-6-6,76.5,68.2,64.5,70.7,66.5,64.5,100,95,74,29.91,29.75,11,1,11,0.03
2013-6-7,71.8,66.5,63.7,65.2,63.7,61.6,96,91,71,29.85,29.74,2,0,4,0.06
2013-6-8,77.7,68.5,61.2,67.4,62.3,58.2,99,82,54,30.05,29.83,12,1,12,0.04
2013-6-9,77.9,69.0,66.3,70.3,65.7,59.8,100,90,74,30.07,29.93,12,1,12,0.77
2013-6-10,79.2,70.3,65.3,68.4,65.2,58.7,100,86,53,29.96,29.88,14,1,14,0.89
2013-6-11,84.5,74.8,66.9,71.6,67.5,64.3,96,80,54,30.01,29.93,7,0,7,0.38
2013-6-12,87.2,78.5,71.5,73.6,70.2,66.1,93,77,51,30.04,29.92,11,0,11,0.00
2013-6-13,84.5,76.5,69.8,73.2,68.6,63.2,85,77,62,29.92,29.72,17,2,17,0.00
2013-6-14,79.6,70.6,62.1,63.9,58.1,54.1,85,66,46,30.01,29.85,15,1,15,0.00
2013-6-15,79.8,71.7,64.2,64.1,59.6,55.0,77,66,52,30.10,30.00,13,1,13,0.01
2013-6-16,82.6,72.7,66.0,69.4,63.6,58.6,92,74,58,30.11,29.97,12,1,12,0.00
2013-6-17,77.0,70.1,66.6,72.2,67.3,64.2,98,91,74,30.03,29.90,12,0,12,0.22
2013-6-18,75.3,69.1,65.8,71.3,66.3,61.7,99,91,75,29.94,29.84,12,0,12,0.52
2013-6-19,79.4,71.4,64.0,67.3,63.1,60.0,92,76,54,30.05,29.92,9,1,10,0.00
2013-6-20,81.1,72.6,66.6,68.7,64.7,60.0,93,77,56,30.17,30.05,12,1,12,0.00
2013-6-21,78.5,70.5,66.3,66.1,64.4,62.6,92,82,59,30.23,30.14,11,1,11,0.00
2013-6-22,80.1,76.5,72.5,65.6,62.2,59.7,72,62,52,30.20,30.08,11,1,11,0.00
2013-6-23,80.9,73.3,67.3,70.2,65.3,59.9,94,77,59,30.18,30.07,12,1,12,0.02
2013-6-24,82.4,73.8,66.8,70.8,67.6,65.2,97,82,58,30.20,30.06,12,0,12,0.00
2013-6-25,81.6,72.5,67.6,75.2,69.6,65.0,99,91,70,30.14,30.00,11,0,11,0.98
2013-6-26,84.9,76.7,69.8,72.4,70.1,68.2,97,81,59,30.04,29.85,11,0,11,0.00
2013-6-27,84.5,76.0,71.5,74.6,70.5,64.9,96,84,64,29.90,29.78,12,0,12,0.25
2013-6-28,86.1,75.5,69.1,72.0,68.1,64.9,96,79,54,29.82,29.65,12,1,12,0.03
2013-6-29,81.8,74.0,67.6,67.7,62.0,54.5,95,68,43,29.69,29.64,13,0,13,0.00
2013-6-30,83.2,73.0,64.5,65.7,60.3,54.6,94,66,40,29.82,29.65,11,1,11,0.12
2013-7-1,75.8,67.5,62.0,67.8,64.1,60.9,98,89,69,29.89,29.75,12,1,12,0.36
2013-7-2,77.4,68.9,64.2,70.4,65.8,62.0,100,91,71,30.04,29.89,11,0,11,0.27
2013-7-3,69.6,67.5,66.0,69.3,67.1,64.0,100,99,93,30.14,30.02,13,1,13,0.22
2013-7-4,70.4,66.7,65.0,70.4,66.7,65.0,100,100,100,30.14,30.05,15,2,15,1.07
2013-7-5,69.6,67.9,66.3,69.6,67.9,66.3,100,100,100,30.17,30.07,14,1,14,0.34
2013-7-6,68.6,67.1,65.5,68.6,67.1,65.5,100,100,100,30.13,30.09,12,1,12,2.03
2013-7-7,73.2,69.0,65.6,72.8,69.0,65.6,100,100,98,30.15,30.08,9,0,9,2.03
2013-7-8,80.9,72.6,67.3,73.8,69.8,66.8,100,91,70,30.19,30.08,7,1,10,0.00
2013-7-9,79.9,73.8,69.6,76.0,72.2,69.0,100,95,82,30.15,30.04,9,0,9,0.17
2013-7-10,84.0,74.5,66.8,76.0,71.2,64.7,99,90,68,30.07,29.91,13,1,13,0.42
2013-7-11,79.0,72.0,66.9,73.7,69.8,66.6,100,93,77,29.98,29.86,13,1,13,0.01
2013-7-12,79.8,72.6,66.8,69.9,65.0,59.8,93,78,56,29.97,29.88,9,0,9,0.00
2013-7-13,79.8,70.4,64.5,69.6,64.6,59.0,93,82,68,30.05,29.92,14,1,14,0.00
2013-7-14,78.5,72.2,68.1,73.6,69.0,66.5,99,90,75,30.18,30.03,14,2,14,0.12
2013-7-15,81.1,74.5,68.8,70.5,67.9,65.2,93,80,59,30.27,30.18,12,1,12,0.00
2013-7-16,84.0,77.0,70.1,73.0,69.6,68.2,95,79,61,30.30,30.21,11,0,11,0.00
2013-7-17,87.6,79.0,71.3,74.0,69.9,64.7,92,74,55,30.26,30.13,12,1,12,0.00
2013-7-18,83.2,76.5,69.8,73.3,69.2,66.2,91,79,60,30.19,30.03,9,1,9,0.00
2013-7-19,87.2,78.7,71.6,73.9,70.0,64.7,96,76,49,30.08,29.94,8,0,8,0.00
2013-7-20,87.0,78.1,70.9,72.9,69.4,65.7,92,76,52,30.00,29.88,7,0,7,0.00
2013-7-21,82.0,73.7,70.1,73.5,70.3,67.7,97,90,70,29.99,29.92,11,0,11,0.12
2013-7-22,80.5,72.2,66.3,71.3,68.2,65.7,99,88,68,29.96,29.84,13,0,13,0.00
2013-7-23,76.8,72.6,68.4,73.5,69.9,66.3,98,91,80,29.91,29.79,10,0,10,0.76
2013-7-24,79.4,73.3,68.6,72.2,69.0,63.1,98,87,72,29.88,29.80,12,0,12,0.00
2013-7-25,81.4,71.6,62.7,67.4,63.4,59.6,91,76,55,30.03,29.87,11,1,11,0.00
2013-7-26,82.2,72.6,64.7,70.1,63.1,58.3,82,73,54,30.06,29.96,11,1,11,0.00
2013-7-27,77.7,71.7,67.8,72.1,66.7,62.9,97,84,66,29.97,29.86,10,0,10,0.55
2013-7-28,79.0,70.0,64.2,67.8,63.2,56.2,96,80,57,30.06,29.90,11,0,11,0.00
2013-7-29,76.0,67.4,60.4,64.0,56.5,50.4,77,69,52,30.19,30.05,10,0,10,0.00
2013-7-30,78.5,70.7,64.7,67.5,61.6,56.7,92,73,59,30.22,30.10,6,0,9,0.01
2013-7-31,71.8,68.1,64.7,71.5,67.1,63.8,100,97,86,30.12,29.96,11,0,11,0.64
2013-8-1,80.3,72.3,68.8,70.3,67.9,64.2,100,87,61,29.98,29.92,5,0,5,0.00
2013-8-2,79.9,72.7,66.4,67.1,63.6,60.7,89,74,55,30.03,29.95,9,0,9,0.00
2013-8-3,79.6,74.0,69.3,70.8,66.1,59.4,93,77,65,30.03,29.97,9,0,9,0.03
2013-8-4,82.2,74.3,67.3,70.3,66.1,59.1,95,77,55,30.06,29.98,9,0,9,0.00
2013-8-5,81.1,71.5,63.1,64.3,59.1,53.4,81,66,39,30.06,29.95,8,0,8,0.00
2013-8-6,77.6,72.9,69.3,73.6,67.9,60.2,99,85,69,29.98,29.92,7,0,7,0.16
2013-8-7,78.6,71.6,69.6,74.0,70.8,68.8,100,97,84,30.01,29.93,11,0,11,0.26
2013-8-8,81.4,72.3,68.9,74.8,70.9,67.4,100,95,78,30.03,29.95,15,0,15,1.41
2013-8-9,84.1,75.1,68.8,76.5,72.3,68.8,100,91,71,30.05,29.97,12,0,12,0.05
2013-8-10,81.8,75.0,71.3,76.4,72.8,69.9,99,93,75,30.09,30.02,12,0,12,0.07
2013-8-11,82.6,74.7,69.4,74.9,72.0,69.4,100,92,72,30.12,30.03,5,0,5,0.09
2013-8-12,80.1,73.8,69.8,75.1,71.6,67.7,98,93,75,30.09,29.95,14,0,14,0.83
2013-8-13,80.7,72.9,69.1,70.8,69.4,66.7,100,90,65,29.97,29.86,11,0,11,0.17
2013-8-14,74.6,68.8,63.1,68.4,62.0,53.6,95,80,60,30.04,29.91,12,0,12,0.00
2013-8-15,63.5,63.4,63.4,54.3,54.0,53.1,72,72,70,30.04,30.03,0,0,2,0.00
2013-8-16,72.0,68.0,65.0,63.4,61.8,59.9,91,81,70,30.09,30.03,4,0,7,0.00
2013-8-17,69.3,65.6,63.5,65.2,62.7,59.3,100,91,79,30.13,30.06,5,0,6,0.08
2013-8-18,71.1,66.5,63.2,70.3,65.5,63.2,100,97,82,30.17,30.09,5,0,10,0.09
2013-8-19,73.0,68.3,65.5,70.3,67.7,65.5,100,98,87,30.13,30.04,5,0,9,0.07
2013-8-20,78.3,72.3,67.9,71.6,69.5,67.8,100,91,75,30.15,30.07,5,0,15,0.01
2013-8-21,74.7,71.0,66.6,71.8,69.8,64.0,100,96,88,30.20,30.10,4,0,11,0.98
2013-8-22,77.6,71.7,68.6,75.1,69.9,64.7,100,94,77,30.16,30.03,6,0,12,0.54
2013-8-23,81.8,73.4,67.8,73.6,68.3,65.4,97,84,66,30.07,29.97,5,1,14,0.17
2013-8-24,80.3,72.2,66.9,70.7,67.4,64.9,97,86,63,30.22,30.04,4,1,9,0.00
2013-8-25,77.7,71.5,64.8,67.8,63.3,59.4,95,77,56,30.34,30.21,5,1,7,0.00
2013-8-26,79.2,71.4,64.3,66.3,61.2,56.3,84,71,56,30.29,30.14,5,1,9,0.00
2013-8-27,82.8,74.4,69.1,70.6,64.6,60.3,85,72,54,30.15,30.03,2,0,5,0.00
2013-8-28,85.3,76.8,70.4,71.2,68.1,65.2,90,75,58,30.05,29.97,2,0,4,0.00
2013-8-29,87.4,78.3,70.8,72.5,69.5,67.0,91,75,57,30.00,29.92,3,0,7,0.00
2013-8-30,82.4,75.5,72.3,76.7,71.8,69.7,98,88,77,29.98,29.90,7,1,11,0.47
2013-8-31,83.8,75.8,69.6,75.6,72.1,68.4,99,89,66,29.94,29.82,5,1,8,0.18
2013-9-1,81.8,73.9,69.3,76.1,70.1,66.2,99,89,67,29.91,29.82,4,0,7,0.10
2013-9-2,82.2,73.9,68.8,72.3,68.5,65.6,93,84,67,29.93,29.83,4,0,7,0.01
2013-9-3,83.6,74.8,68.8,71.1,67.2,61.2,97,79,51,29.99,29.83,4,0,7,0.00
2013-9-4,80.7,71.9,65.0,66.6,62.5,58.9,84,73,57,30.11,29.98,3,0,9,0.00
2013-9-5,79.8,71.1,64.5,65.8,61.5,58.3,83,72,58,30.15,30.08,3,0,7,0.00
2013-9-6,81.6,72.6,66.4,66.0,61.7,58.8,81,69,55,30.15,30.06,4,0,9,0.00
2013-9-7,80.5,73.5,66.0,69.4,65.1,60.0,86,75,65,30.10,29.99,4,1,10,0.00
2013-9-8,81.4,74.9,68.4,70.7,67.1,64.1,90,77,61,30.01,29.93,2,0,6,0.00
2013-9-9,81.4,75.7,71.3,71.8,69.3,66.7,94,81,67,30.08,29.97,4,0,8,0.00
2013-9-10,84.7,75.9,68.9,71.2,67.5,64.4,89,76,55,30.19,30.08,4,0,10,0.00
2013-9-11,82.2,75.3,69.4,71.9,67.7,64.0,93,78,56,30.20,30.08,5,0,9,0.00
2013-9-12,84.0,75.9,71.1,69.0,66.4,64.2,84,73,58,30.08,29.89,3,0,9,0.00
2013-9-13,76.8,69.5,58.1,65.9,58.0,48.7,93,69,41,29.97,29.86,3,0,9,0.00
2013-9-14,73.5,62.3,53.5,55.7,50.3,46.1,80,66,47,30.07,29.95,5,1,12,0.00
2013-9-15,76.5,67.0,58.6,63.8,57.2,50.5,84,71,53,30.16,30.07,6,1,12,0.00
2013-9-16,81.6,71.0,64.0,63.0,58.5,50.3,82,66,38,30.15,30.08,2,0,7,0.00
2013-9-17,76.3,68.4,62.1,64.7,60.9,58.2,88,77,65,30.20,30.11,6,1,10,0.00
2013-9-18,74.6,67.6,62.6,62.9,58.8,55.3,86,74,62,30.22,30.11,4,0,7,0.00
2013-9-19,77.2,69.3,61.2,65.1,61.7,58.2,92,78,63,30.18,30.04,5,1,9,0.00
2013-9-20,68.8,66.3,64.5,63.2,62.0,61.0,90,86,82,30.06,30.03,3,0,4,0.00
2013-9-21,66.8,62.8,57.5,66.8,61.8,55.2,100,97,90,29.83,29.74,5,1,7,1.66
2013-9-22,72.0,62.1,54.1,58.6,52.3,47.8,92,71,50,29.91,29.83,6,1,15,0.00
2013-9-23,73.9,64.3,55.4,61.7,55.8,51.0,89,75,58,30.01,29.90,5,1,7,0.00
2013-9-24,67.3,63.1,60.4,62.8,59.5,56.9,97,88,79,30.02,29.88,5,0,9,0.00
2013-9-25,64.7,63.4,62.6,64.7,63.2,61.6,100,99,93,29.88,29.82,1,0,4,0.77
2013-9-26,73.7,65.7,61.6,64.4,61.6,56.5,100,88,66,30.01,29.87,4,0,7,0.01
2013-9-27,74.4,66.3,59.6,61.2,57.8,53.3,94,75,56,30.14,30.01,5,0,8,0.00
2013-9-28,72.7,65.6,58.4,60.1,56.4,54.2,88,73,55,30.20,30.09,5,1,9,0.00
2013-9-29,69.3,63.2,55.9,58.2,54.5,51.7,88,74,60,30.14,30.01,4,0,9,0.00
2013-9-30,70.6,63.1,57.2,58.4,55.6,53.8,92,77,59,30.08,30.00,4,1,10,0.00
2013-10-1,73.9,65.4,59.3,64.4,59.4,55.0,89,81,69,30.15,30.03,6,1,10,0.00
2013-10-2,77.2,69.6,63.2,66.9,63.2,61.5,95,81,61,30.15,30.05,4,1,9,0.00
2013-10-3,78.5,70.9,65.6,67.7,63.3,59.8,98,78,58,30.10,30.03,5,1,13,0.00
2013-10-4,76.0,68.7,63.2,66.8,62.7,59.4,94,82,65,30.15,30.07,4,0,6,0.00
2013-10-5,79.4,71.3,65.3,66.9,64.1,62.1,97,79,61,30.11,29.99,6,1,9,0.00
2013-10-6,76.0,68.4,53.2,67.2,63.6,52.1,96,85,67,29.99,29.80,7,1,14,0.07
2013-10-7,66.6,56.9,51.7,52.5,49.4,42.6,97,77,50,30.06,29.86,5,1,14,0.00
2013-10-8,69.6,59.3,51.7,53.9,48.0,42.6,76,66,53,30.13,30.05,5,1,14,0.00
2013-10-9,70.9,62.8,54.8,59.4,54.2,49.7,88,74,60,30.19,30.11,4,1,6,0.00
2013-10-10,75.3,65.5,58.9,60.1,54.7,51.0,80,69,50,30.14,30.03,3,0,6,0.00
2013-10-11,76.5,65.1,57.2,56.3,50.8,39.6,76,61,31,30.08,29.99,1,0,5,0.00
2013-10-12,76.3,66.7,60.2,59.6,54.1,48.6,77,65,42,30.10,30.00,3,0,6,0.00
2013-10-13,76.7,67.6,59.9,58.6,54.7,50.5,76,64,49,30.20,30.09,3,0,7,0.00
2013-10-14,75.1,67.1,61.0,61.6,58.0,54.1,82,73,59,30.20,30.08,6,1,12,0.05
2013-10-15,67.8,63.3,59.8,59.8,58.0,56.3,94,83,70,30.13,30.03,5,0,9,0.00
2013-10-16,66.8,61.2,58.3,61.5,57.9,55.2,100,89,78,30.06,29.94,2,0,6,0.02
2013-10-17,65.8,59.8,50.7,65.6,58.3,49.0,100,95,82,30.00,29.86,4,0,10,0.26
2013-10-18,62.6,53.7,47.0,49.9,46.8,44.1,95,79,57,30.08,29.98,3,0,9,0.00
2013-10-19,63.4,53.8,43.9,51.8,47.5,40.3,89,80,60,30.04,29.91,4,0,8,0.00
2013-10-20,60.1,48.3,38.9,42.1,38.3,35.0,92,70,43,30.12,30.03,5,0,12,0.00
2013-10-21,63.9,54.2,44.6,48.2,42.4,36.1,78,65,48,30.13,30.01,5,1,9,0.00
2013-10-22,61.5,55.8,50.7,51.0,47.9,43.8,91,75,65,30.02,29.86,3,0,5,0.00
2013-10-23,51.4,45.6,38.6,48.0,36.7,30.2,90,71,51,30.13,29.83,5,1,12,0.00
2013-10-24,54.7,44.4,38.6,40.1,35.6,30.9,82,71,53,30.29,30.11,4,0,11,0.00
2013-10-25,47.6,38.4,29.7,31.6,25.9,21.9,77,61,44,30.48,30.29,4,1,12,0.00
2013-10-26,56.9,44.7,33.2,35.4,28.5,23.1,71,54,30,30.38,30.15,6,0,11,0.00
2013-10-27,59.0,53.7,49.1,51.8,44.7,34.9,88,72,53,30.15,30.08,6,0,9,0.00
2013-10-28,57.8,54.7,51.7,54.2,52.0,49.1,97,90,80,30.27,30.11,2,0,4,0.00
2013-10-29,64.7,58.2,53.5,56.6,54.8,52.7,100,89,71,30.33,30.22,6,1,10,0.00
2013-10-30,74.4,64.2,57.6,59.1,55.4,48.5,94,75,44,30.26,30.11,5,0,8,0.00
2013-10-31,67.6,62.6,58.1,63.9,57.7,53.1,99,84,72,30.11,29.70,5,2,15,0.19
2013-11-1,68.8,61.2,54.4,63.9,51.4,40.8,99,72,41,29.83,29.68,5,0,10,0.30
2013-11-2,59.9,52.3,45.7,44.4,40.1,31.9,80,65,38,30.11,29.81,5,1,14,0.00
2013-11-3,54.7,47.0,39.2,39.4,36.7,33.9,91,69,51,30.31,30.09,5,1,12,0.00
2013-11-4,59.2,50.2,41.6,38.9,36.1,33.6,79,59,43,30.42,30.30,7,1,13,0.00
2013-11-5,58.6,52.0,45.2,42.0,37.0,33.3,68,57,47,30.45,30.31,5,1,10,0.00
2013-11-6,66.9,57.9,50.2,57.5,50.6,32.3,99,78,47,30.31,30.06,3,1,15,0.03
2013-11-7,59.8,48.3,38.8,58.3,40.4,26.5,99,76,45,30.31,30.01,8,2,17,0.35
2013-11-8,51.7,43.7,36.0,27.8,23.8,19.5,70,47,29,30.41,30.28,5,1,10,0.00
2013-11-9,53.2,46.4,40.1,35.2,28.9,20.2,70,51,40,30.35,30.25,3,0,9,0.00
2013-11-10,66.3,52.8,43.9,42.2,33.6,23.8,72,50,28,30.33,30.24,4,0,10,0.00
2013-11-11,59.8,50.8,41.2,31.2,26.0,21.1,52,39,28,30.33,30.17,3,0,11,0.02
2013-11-12,55.4,41.0,26.7,39.7,23.2,11.3,83,52,26,30.58,30.12,6,1,15,0.00
2013-11-13,40.9,32.0,24.2,17.1,14.4,12.4,66,49,34,30.69,30.50,6,1,11,0.00
2013-11-14,50.7,40.3,30.4,22.2,15.7,12.3,52,38,24,30.51,30.30,5,1,9,0.00
2013-11-15,48.3,43.5,39.5,41.9,29.4,14.7,99,63,31,30.30,30.17,3,0,5,0.18
2013-11-16,56.0,48.9,41.2,55.3,48.7,40.9,100,99,94,30.24,30.11,3,0,9,0.01
2013-11-17,64.7,59.3,55.9,64.7,58.6,54.3,100,98,92,30.11,29.84,6,1,14,0.88
2013-11-18,61.6,54.4,43.1,61.6,38.9,28.5,100,58,31,30.16,29.85,10,2,17,0.00
2013-11-19,49.9,42.6,36.2,29.3,25.8,19.0,66,52,31,30.25,30.15,4,1,15,0.00
2013-11-20,53.5,45.1,37.0,33.0,29.0,26.1,66,54,38,30.32,30.18,6,1,13,0.00
2013-11-21,56.0,51.0,47.0,51.5,41.8,32.4,93,71,56,30.36,30.27,3,0,14,0.00
2013-11-22,56.5,53.2,49.5,56.5,52.9,48.4,100,99,93,30.32,30.20,6,1,10,0.09
2013-11-23,49.5,41.7,28.4,48.4,35.2,17.2,97,79,51,30.42,30.21,5,2,12,0.00
2013-11-24,34.0,27.0,18.9,18.5,9.7,4.1,69,50,29,30.61,30.41,4,1,14,0.00
2013-11-25,35.8,30.1,25.4,28.8,15.3,6.9,94,56,37,30.51,30.23,2,0,5,0.01
2013-11-26,41.3,34.4,30.0,41.3,33.8,28.5,100,97,93,30.23,29.79,6,1,12,0.01
2013-11-27,33.2,27.4,20.0,31.7,20.8,12.1,94,76,62,30.36,29.84,9,2,15,0.00
2013-11-28,38.9,28.6,18.0,22.2,17.2,11.7,79,63,48,30.51,30.35,4,0,8,0.00
2013-11-29,46.7,38.1,30.7,24.6,19.2,13.3,56,46,35,30.59,30.50,3,0,7,0.00
2013-11-30,49.6,41.7,36.0,27.5,24.7,22.4,64,51,36,30.54,30.31,4,0,11,0.00
2013-12-1,50.1,43.8,35.5,35.8,29.7,23.8,67,57,48,30.32,30.00,4,0,6,0.00
2013-12-2,46.4,44.2,42.1,46.0,42.1,33.8,100,93,62,30.00,29.82,2,0,6,0.01
2013-12-3,52.3,48.4,45.4,52.3,48.4,45.4,100,100,100,29.88,29.82,2,0,5,0.04
2013-12-4,63.7,57.8,52.3,62.6,57.0,52.3,100,97,84,29.97,29.86,2,0,10,0.01
2013-12-5,69.4,64.1,61.0,66.0,63.3,59.8,100,97,85,30.00,29.88,2,0,11,0.06
2013-12-6,63.2,47.5,35.3,63.2,47.1,33.5,100,98,93,30.21,29.86,13,2,18,0.80
2013-12-7,35.8,33.6,31.5,33.4,32.1,30.5,99,94,88,30.43,30.20,8,1,14,0.01
2013-12-8,44.8,38.6,32.2,44.8,38.5,31.6,100,100,97,30.36,30.10,2,0,7,0.73
2013-12-9,49.4,43.1,35.5,48.7,42.6,35.0,100,98,85,30.17,30.05,6,1,10,0.22
2013-12-10,38.2,32.2,27.6,38.2,28.7,21.3,100,87,71,30.42,30.01,10,2,20,0.24
2013-12-11,44.5,34.7,26.9,27.0,20.9,13.8,80,58,39,30.50,30.38,2,0,7,0.00
2013-12-12,38.0,29.8,21.1,23.8,16.2,5.4,82,59,27,30.57,30.44,9,2,12,0.00
2013-12-13,41.8,34.8,27.2,23.9,16.9,10.2,57,48,36,30.47,30.17,6,0,7,0.00
2013-12-14,47.7,42.0,35.3,47.7,37.5,21.0,100,86,47,30.20,29.81,5,1,10,0.64
2013-12-15,38.0,31.2,28.5,35.8,28.4,24.7,97,89,82,30.27,29.92,6,1,15,0.00
2013-12-16,51.3,36.9,27.0,34.4,29.4,25.5,95,76,49,30.28,30.15,5,0,10,0.00
2013-12-17,56.3,45.1,34.9,35.7,30.4,23.0,66,57,43,30.25,30.05,9,1,16,0.00
2013-12-18,45.5,36.7,27.3,23.7,20.8,13.9,77,54,31,30.38,30.25,4,0,9,0.00
2013-12-19,61.4,45.7,35.6,39.9,22.1,16.9,58,39,30,30.32,30.14,9,1,10,0.05
2013-12-20,57.9,51.5,45.2,50.8,36.8,25.3,86,58,40,30.17,30.05,13,3,13,0.00
2013-12-21,64.3,58.7,54.7,63.9,57.3,50.6,99,95,86,30.05,29.80,21,4,21,0.26
2013-12-22,64.8,55.0,52.0,64.5,54.5,51.6,100,98,86,30.06,29.77,19,2,19,1.72
2013-12-23,52.0,37.9,28.9,51.6,35.8,25.5,99,92,84,30.39,30.03,18,4,18,0.00
2013-12-24,32.7,27.4,23.6,26.1,19.7,13.5,90,74,48,30.53,30.38,10,3,14,0.00
2013-12-25,41.1,30.6,21.0,25.1,20.0,14.0,80,65,50,30.51,30.37,15,2,15,0.00
2013-12-26,47.2,36.9,30.3,31.1,25.5,22.1,78,64,45,30.42,30.33,9,2,9,0.00
2013-12-27,49.6,39.7,31.7,27.0,22.5,19.6,66,51,35,30.49,30.37,9,2,9,0.00
2013-12-28,41.1,37.5,34.3,37.4,28.2,20.5,98,72,44,30.41,29.99,9,1,9,0.86
2013-12-29,45.3,41.2,37.9,42.3,39.8,37.1,99,95,87,30.06,29.90,12,1,12,0.30
2013-12-30,41.3,34.5,31.3,39.6,32.2,29.3,98,91,80,30.28,30.06,13,2,13,0.00
2013-12-31,38.5,31.6,26.9,29.8,26.1,24.7,95,81,60,30.49,30.26,10,3,15,0.00
2014-1-1,45.2,36.1,28.9,33.3,27.6,23.3,83,72,54,30.38,30.10,13,2,13,0.00
2014-1-2,44.6,33.3,17.6,44.3,30.8,12.9,99,91,76,30.24,29.81,28,5,28,0.21